Location: Frizzleburg
(41.0764°N, 80.4548°W)
Time: 13:58:13
(UTC+00:00)

Cosmos 2173 Rocket - Pass Details

Date: 17 November 2019
Orbit: 944 x 1001 km, 83.0° (Epoch: 06 December)

Event Time Altitude Azimuth Distance (km) Brightness Sun altitude
Rises 10:25:20 0° 189° (S) 3,684 7.0 -20.0°
Reaches altitude 10° 10:27:51 10° 190° (S) 2,732 6.3 -19.5°
Maximum altitude 10:34:08 79° 278° (W) 995 3.9 -18.3°
Drops below altitude 10° 10:40:21 10° 5° (N) 2,709 6.3 -17.2°
Sets 10:42:51 0° 7° (N) 3,651 7.0 -16.7°
